KUIPER-00105

导读

KUIPER-00105是美国发射的柯伊伯项目卫星,该项目由亚马逊主导,旨在构建近地轨道卫星星座,为全球提供高速互联网覆盖。该卫星于2025年8月11日发射升空,入轨后将参与星座组网测试,验证卫星通信相关技术性能,推进全球宽带互联网络部署进程,补充地面网络覆盖盲区。

Basic Information
目录编号:
65143
目录名称:
KUIPER-00105
国际标识:
2025-171M
轨道中心:
EARTH
卫星名称:
KUIPER-00105
卫星全名:
KUIPER-00105
卫星状态:
在轨 (已飞行306 天)
发射日期:
2025-08-11 UTC
国别 :
美国 (US)
星等 :
--
Orbit Information
数据来源 国际轨道数据 AOE轨道数据
星历时间 2026-06-12T11:26:45+0800
23小时前
查看轨道信息
2026-06-13T01:00:00+0800
10小时前
查看轨道信息
半长轴 7007.642km 7007.672km
偏心率 0.0000822 0.0000623
轨道倾角 51.899° 51.900°
近地点辐角 94.835° 97.601°
升交点赤经 107.980° 105.484°
平近点角 265.271° 33.229°
近地点 628.928km 629.098km
远地点 630.082km 629.972km
周期 97.301分钟 97.302分钟
每日圈数 14.79943 14.799332
Detailed Information
使用方式:
暂无
2D Orbit Map
3D Orbit Map
Orbit Altitude Analysis Chart
Orbit Inclination Analysis Chart
Orbit Comprehensive Analysis Chart
View Comprehensive Chart